Skip Page Navigation
NASA JPL Caltech
NASA Logo - Jet Propulsion Laboratory + View the NASA Portal
+ Center for Near-Earth Object Studies
JPL Home Earth Solar System Stars & Galaxies Technology
JPL Solar System Dynamics
BODIES ORBITS EPHEMERIDES TOOLS PHYSICAL DATA DISCOVERY FAQ SITE MAP
JPL Small-Body Database Browser
Search: [ help ]  
134195 (2005 CX76)
Classification: Main-belt Asteroid          SPK-ID: 2134195
Ephemeris | Orbit Diagram | Orbital Elements | Mission Design | Physical Parameters | Discovery Circumstances | Close-Approach Data ]

[ show orbit diagram ]
Orbital Elements at Epoch 2459200.5 (2020-Dec-17.0) TDB
Reference: JPL 21 (heliocentric ecliptic J2000)
 Element Value Uncertainty (1-sigma)   Units 
e .05235280454735108 4.1073e-08  
a 2.96015151482277 2.341e-08 au
q 2.805179281136708 1.2142e-07 au
i 2.062509592987469 4.8395e-06 deg
node 123.8941268367266 0.00013019 deg
peri 151.682797240896 0.00013824 deg
M 279.1120695715935 4.6938e-05 deg
tp 2459618.475245291522
(2022-Feb-07.97524529)
0.00024305 TDB
period 1860.241540462319
5.09
2.2067e-05
6.042e-08
d
yr
n .1935232560770202 2.2956e-09 deg/d
Q 3.115123748508832 2.4635e-08 au
  Orbit Determination Parameters
   # obs. used (total)      395  
   data-arc span      10397 days (28.47 yr)  
   first obs. used      1992-09-26  
   last obs. used      2021-03-15  
   planetary ephem.      DE441  
   SB-pert. ephem.      SB441-N16  
   condition code      0  
   norm. resid. RMS      .55359  
   source      ORB  
   producer      Otto Matic  
   solution date      2021-Apr-13 18:07:19  

Additional Information
 Earth MOID = 1.78715 au 
 Jupiter MOID = 1.93579 au 
 T_jup = 3.263 
[ show covariance matrix ]

Ephemeris | Orbit Diagram | Orbital Elements | Mission Design | Physical Parameters | Discovery Circumstances | Close-Approach Data ]

Physical Parameter Table
Parameter Symbol Value Units Sigma Reference Notes
absolute magnitude H 15.81   n/a E2021B55  

134195 (2005 CX76)          Discovered 2005-Feb-09 by Mt. Lemmon Survey at Mt. Lemmon
Reference: 20060711/Numbers.arcLast Updated: 2006-07-17

[ show close-approach data ]
Alternate Designations
 2005 CX76 = 2002 RB195 
Ephemeris | Orbit Diagram | Orbital Elements | Mission Design | Physical Parameters | Discovery Circumstances | Close-Approach Data ]
ABOUT SSD CREDITS/AWARDS PRIVACY/COPYRIGHT GLOSSARY LINKS
FirstGov 2021-Apr-21 00:29 UT
(server date/time)  
NASA Home Page
Site Manager:   Ryan S. Park
Webmaster  Alan B. Chamberlin